This is the latest recevied weather packets stored in our database for station/object SP6KBU-12. If no packets are shown the sender has not sent any weather packets the latest 10 day(s).
| Time | Temp. | Humidity | Pressure | Rain* | Wind** | Luminosity | Snow |
|---|---|---|---|---|---|---|---|
| 1777949888 | 15° C | 49% | 1011.9 hPa | - | - | - | - |
| 1777948987 | 15° C | 50% | 1012 hPa | - | - | - | - |
| 1777948086 | 15° C | 51% | 1012.2 hPa | - | - | - | - |
| 1777947185 | 15° C | 54% | 1012.4 hPa | - | - | - | - |
| 1777946284 | 14.44° C | 51% | 1012.4 hPa | - | - | - | - |
| 1777945383 | 14.44° C | 48% | 1012.7 hPa | - | - | - | - |
| 1777944482 | 15° C | 48% | 1012.7 hPa | - | - | - | - |
| 1777943581 | 15° C | 48% | 1012.9 hPa | - | - | - | - |
| 1777942680 | 15.56° C | 47% | 1013 hPa | - | - | - | - |
| 1777941779 | 15.56° C | 47% | 1013.2 hPa | - | - | - | - |
| 1777940878 | 15.56° C | 47% | 1013.3 hPa | - | - | - | - |
| 1777939977 | 15° C | 50% | 1013.5 hPa | - | - | - | - |
| 1777939076 | 15° C | 48% | 1013.4 hPa | - | - | - | - |
| 1777938175 | 15° C | 49% | 1013.6 hPa | - | - | - | - |
| 1777937274 | 15° C | 48% | 1013.6 hPa | - | - | - | - |
| 1777936373 | 15° C | 48% | 1013.8 hPa | - | - | - | - |
| 1777935472 | 15° C | 46% | 1013.9 hPa | - | - | - | - |
| 1777934571 | 15° C | 47% | 1014.2 hPa | - | - | - | - |
| 1777933670 | 15° C | 46% | 1014.2 hPa | - | - | - | - |
| 1777932769 | 15° C | 45% | 1014.2 hPa | - | - | - | - |
| 1777931868 | 15.56° C | 42% | 1014.3 hPa | - | - | - | - |
| 1777930967 | 16.11° C | 43% | 1014.3 hPa | - | - | - | - |
| 1777930066 | 16.67° C | 43% | 1014.4 hPa | - | - | - | - |
| 1777929165 | 16.67° C | 43% | 1014.2 hPa | - | - | - | - |
| 1777928264 | 17.22° C | 42% | 1014.4 hPa | - | - | - | - |
* Rain since midnight (hover to see other rain measurements)
** Current wind speed in m/s (hover to see current wind gust speed)